This is the latest recevied weather packets stored in our database for station/object KC3AWA. If no packets are shown the sender has not sent any weather packets the latest 1 day(s).
| Time | Temp. | Humidity | Pressure | Rain* | Wind** | Luminosity | Snow |
|---|---|---|---|---|---|---|---|
| 1778001825 | 20.56° C | 52% | 1008.4 hPa | 0 mm | 5.36 m/s, 168° | 909 W/m² | - |
| 1778001525 | 21.11° C | 53% | 1008.3 hPa | 0 mm | 6.26 m/s, 198° | 267 W/m² | - |
| 1778001222 | 21.11° C | 53% | 1008.3 hPa | 0 mm | 3.58 m/s, 232° | 339 W/m² | - |
| 1778000918 | 21.67° C | 53% | 1008.5 hPa | 0 mm | 2.68 m/s, 254° | 411 W/m² | - |
| 1778000615 | 21.11° C | 53% | 1008.4 hPa | 0 mm | 4.02 m/s, 213° | 366 W/m² | - |
| 1778000311 | 21.67° C | 53% | 1008.2 hPa | 0 mm | 2.68 m/s, 219° | 330 W/m² | - |
| 1778000006 | 21.11° C | 55% | 1008.4 hPa | 0 mm | 1.34 m/s, 163° | 418 W/m² | - |
| 1777999702 | 21.67° C | 52% | 1008.2 hPa | 0 mm | 3.13 m/s, 288° | 490 W/m² | - |
| 1777999399 | 20.56° C | 56% | 1008.2 hPa | 0 mm | 3.58 m/s, 198° | 884 W/m² | - |
| 1777999098 | 20.56° C | 57% | 1008.2 hPa | 0 mm | 1.79 m/s, 254° | 392 W/m² | - |
| 1777998796 | 20° C | 56% | 1008.4 hPa | 0 mm | 4.02 m/s, 224° | 936 W/m² | - |
| 1777998494 | 19.44° C | 59% | 1008.1 hPa | 0 mm | 1.34 m/s, 244° | 314 W/m² | - |
| 1777998190 | 19.44° C | 59% | 1008.6 hPa | 0 mm | 1.34 m/s, 256° | 259 W/m² | - |
| 1777997887 | 19.44° C | 59% | 1008.5 hPa | 0 mm | 0.89 m/s, 195° | 361 W/m² | - |
| 1777997584 | 20.56° C | 56% | 1008.6 hPa | 0 mm | 2.68 m/s, 243° | 368 W/m² | - |
| 1777997282 | 20° C | 57% | 1008.6 hPa | 0 mm | 2.24 m/s, 228° | 617 W/m² | - |
| 1777996979 | 20° C | 58% | 1008.9 hPa | 0 mm | 1.79 m/s, 172° | 377 W/m² | - |
| 1777996676 | 20° C | 57% | 1008.9 hPa | 0 mm | 4.47 m/s, 212° | 429 W/m² | - |
| 1777996371 | 19.44° C | 59% | 1008.8 hPa | 0 mm | 1.34 m/s, 269° | 566 W/m² | - |
| 1777996068 | 19.44° C | 58% | 1009 hPa | 0 mm | 5.36 m/s, 186° | 329 W/m² | - |
| 1777995765 | 20° C | 60% | 1009.1 hPa | 0 mm | 2.68 m/s, 223° | 370 W/m² | - |
| 1777995461 | 19.44° C | 61% | 1009 hPa | 0 mm | 1.79 m/s, 183° | 908 W/m² | - |
| 1777995158 | 20° C | 59% | 1008.8 hPa | 0 mm | 3.13 m/s, 199° | 294 W/m² | - |
| 1777994855 | 20° C | 57% | 1008.6 hPa | 0 mm | 4.02 m/s, 260° | 332 W/m² | - |
| 1777994551 | 20° C | 58% | 1008.5 hPa | 0 mm | 4.02 m/s, 216° | 664 W/m² | - |
* Rain latest hour (hover to see other rain measurements)
** Current wind speed in m/s (hover to see current wind gust speed)